Location: Bednik
(45.3500°N, 16.3833°E)
Time: 07:27:50
(UTC+00:00)

Cosmos 1441 Rocket - Pass Details

Date: 08 August 2020
Orbit: 497 x 540 km, 81.1° (Epoch: 27 September)

Event Time Altitude Azimuth Distance (km) Brightness Sun altitude
Rises 19:32:35 0° 194° (SSW) 2,621 6.5 -12.9°
Reaches altitude 10° 19:34:43 10° 196° (SSW) 1,732 5.6 -13.2°
Maximum altitude 19:38:31 73° 281° (W) 536 3.4 -13.7°
Drops below altitude 10° 19:42:18 10° 7° (N) 1,725 6.3 -14.2°
Sets 19:44:26 0° 9° (N) 2,610 7.2 -14.5°
